Year,Month,Day,Hour,Minute,Value (Times are PST for windgust in km/hr)
2006,01,28,00,00,29.00
2006,01,28,00,01,35.40
2006,01,28,00,02,48.30
2006,01,28,00,03,45.10
2006,01,28,00,04,29.00
2006,01,28,00,05,22.50
2006,01,28,00,06,30.60
2006,01,28,00,07,41.80
2006,01,28,00,08,35.40
2006,01,28,00,09,27.40
2006,01,28,00,10,29.00
2006,01,28,00,11,27.40
2006,01,28,00,12,20.90
2006,01,28,00,13,24.20
2006,01,28,00,14,35.40
2006,01,28,00,15,24.20
2006,01,28,00,16,37.00
2006,01,28,00,17,27.40
2006,01,28,00,18,27.40
2006,01,28,00,19,24.20
2006,01,28,00,20,67.60
2006,01,28,00,21,56.30
2006,01,28,00,22,38.60
2006,01,28,00,23,30.60
2006,01,28,00,24,24.20
2006,01,28,00,25,41.80
2006,01,28,00,26,35.40
2006,01,28,00,27,32.20
2006,01,28,00,28,41.80
2006,01,28,00,29,29.00
2006,01,28,00,30,24.20
2006,01,28,00,31,40.20
2006,01,28,00,32,32.20
2006,01,28,00,33,32.20
2006,01,28,00,34,27.40
2006,01,28,00,35,33.80
2006,01,28,00,36,37.00
2006,01,28,00,37,35.40
2006,01,28,00,38,29.00
2006,01,28,00,39,37.00
2006,01,28,00,40,25.70
2006,01,28,00,41,20.90
2006,01,28,00,42,38.60
2006,01,28,00,43,37.00
2006,01,28,00,44,35.40
2006,01,28,00,45,25.70
2006,01,28,00,46,30.60
2006,01,28,00,47,22.50
2006,01,28,00,48,25.70
2006,01,28,00,49,49.90
2006,01,28,00,50,37.00
2006,01,28,00,51,35.40
2006,01,28,00,52,29.00
2006,01,28,00,53,8.10
2006,01,28,00,54,33.80
2006,01,28,00,55,29.00
2006,01,28,00,56,35.40
2006,01,28,00,57,25.70
2006,01,28,00,58,32.20
2006,01,28,00,59,29.00
2006,01,28,01,00,35.40
2006,01,28,01,01,46.70
2006,01,28,01,02,48.30
2006,01,28,01,03,27.40
2006,01,28,01,04,41.80
2006,01,28,01,05,25.70
2006,01,28,01,06,43.50
2006,01,28,01,07,27.40
2006,01,28,01,08,22.50
2006,01,28,01,09,35.40
2006,01,28,01,10,35.40
2006,01,28,01,11,37.00
2006,01,28,01,12,32.20
2006,01,28,01,13,57.90
2006,01,28,01,14,40.20
2006,01,28,01,15,51.50
2006,01,28,01,16,33.80
2006,01,28,01,17,33.80
2006,01,28,01,18,22.50
2006,01,28,01,19,27.40
2006,01,28,01,20,24.20
2006,01,28,01,21,27.40
2006,01,28,01,22,27.40
2006,01,28,01,23,43.50
2006,01,28,01,24,43.50
2006,01,28,01,25,25.70
2006,01,28,01,26,49.90
2006,01,28,01,27,22.50
2006,01,28,01,28,25.70
2006,01,28,01,29,37.00
2006,01,28,01,30,24.20
2006,01,28,01,31,43.50
2006,01,28,01,32,40.20
2006,01,28,01,33,22.50
2006,01,28,01,34,40.20
2006,01,28,01,35,35.40
2006,01,28,01,36,33.80
2006,01,28,01,37,41.80
2006,01,28,01,38,29.00
2006,01,28,01,39,24.20
2006,01,28,01,40,14.50
2006,01,28,01,41,37.00
2006,01,28,01,42,35.40
2006,01,28,01,43,32.20
2006,01,28,01,44,35.40
2006,01,28,01,45,32.20
2006,01,28,01,46,25.70
2006,01,28,01,47,22.50
2006,01,28,01,48,37.00
2006,01,28,01,49,29.00
2006,01,28,01,50,46.70
2006,01,28,01,51,24.20
2006,01,28,01,52,40.20
2006,01,28,01,53,35.40
2006,01,28,01,54,30.60
2006,01,28,01,55,37.00
2006,01,28,01,56,46.70
2006,01,28,01,57,30.60
2006,01,28,01,58,48.30
2006,01,28,01,59,35.40
2006,01,28,02,00,45.10
2006,01,28,02,01,38.60
2006,01,28,02,02,41.80
2006,01,28,02,03,22.50
2006,01,28,02,04,20.90
2006,01,28,02,05,16.10
2006,01,28,02,06,30.60
2006,01,28,02,07,41.80
2006,01,28,02,08,30.60
2006,01,28,02,09,43.50
2006,01,28,02,10,45.10
2006,01,28,02,11,32.20
2006,01,28,02,12,33.80
2006,01,28,02,13,22.50
2006,01,28,02,14,22.50
2006,01,28,02,15,30.60
2006,01,28,02,16,33.80
2006,01,28,02,17,48.30
2006,01,28,02,18,25.70
2006,01,28,02,19,17.70
2006,01,28,02,20,14.50
2006,01,28,02,21,27.40
2006,01,28,02,22,41.80
2006,01,28,02,23,27.40
2006,01,28,02,24,38.60
2006,01,28,02,25,25.70
2006,01,28,02,26,27.40
2006,01,28,02,27,14.50
2006,01,28,02,28,27.40
2006,01,28,02,29,38.60
2006,01,28,02,30,22.50
2006,01,28,02,31,29.00
2006,01,28,02,32,24.20
2006,01,28,02,33,35.40
2006,01,28,02,34,33.80
2006,01,28,02,35,27.40
2006,01,28,02,36,38.60
2006,01,28,02,37,43.50
2006,01,28,02,38,33.80
2006,01,28,02,39,29.00
2006,01,28,02,40,38.60
2006,01,28,02,41,30.60
2006,01,28,02,42,30.60
2006,01,28,02,43,33.80
2006,01,28,02,44,45.10
2006,01,28,02,45,38.60
2006,01,28,02,46,33.80
2006,01,28,02,47,17.70
2006,01,28,02,48,41.80
2006,01,28,02,49,37.00
2006,01,28,02,50,56.30
2006,01,28,02,51,30.60
2006,01,28,02,52,30.60
2006,01,28,02,53,24.20
2006,01,28,02,54,19.30
2006,01,28,02,55,35.40
2006,01,28,04,39,24.20
2006,01,28,04,40,29.00
2006,01,28,04,41,24.20
2006,01,28,04,42,24.20
2006,01,28,04,43,20.90
2006,01,28,04,44,29.00
2006,01,28,04,45,22.50
2006,01,28,04,46,27.40
2006,01,28,04,47,19.30
2006,01,28,04,48,17.70
2006,01,28,04,49,11.30
2006,01,28,04,50,11.30
2006,01,28,04,51,19.30
2006,01,28,04,52,24.20
2006,01,28,04,53,33.80
2006,01,28,04,54,14.50
2006,01,28,04,55,19.30
2006,01,28,04,56,14.50
2006,01,28,04,57,20.90
2006,01,28,04,58,22.50
2006,01,28,04,59,9.60
2006,01,28,05,00,11.30
2006,01,28,05,01,9.60
2006,01,28,05,02,11.30
2006,01,28,05,03,9.60
2006,01,28,05,04,17.70
2006,01,28,05,05,11.30
2006,01,28,05,06,11.30
2006,01,28,05,07,25.70
2006,01,28,05,08,20.90
2006,01,28,05,09,16.10
2006,01,28,05,10,24.20
2006,01,28,05,11,17.70
2006,01,28,05,12,22.50
2006,01,28,05,13,24.20
2006,01,28,05,14,40.20
2006,01,28,05,15,30.60
2006,01,28,05,16,22.50
2006,01,28,05,17,24.20
2006,01,28,05,18,37.00
2006,01,28,05,19,45.10
2006,01,28,05,20,59.50
2006,01,28,05,21,67.60
2006,01,28,05,22,54.70
2006,01,28,05,23,43.50
2006,01,28,05,24,45.10
2006,01,28,05,25,41.80
2006,01,28,05,26,46.70
2006,01,28,05,27,41.80
2006,01,28,05,28,37.00
2006,01,28,05,29,43.50
2006,01,28,05,30,43.50
2006,01,28,05,31,27.40
2006,01,28,05,32,29.00
2006,01,28,05,33,25.70
2006,01,28,05,34,22.50
2006,01,28,05,35,19.30
2006,01,28,05,36,24.20
2006,01,28,05,37,9.60
2006,01,28,05,38,16.10
2006,01,28,05,39,35.40
2006,01,28,05,40,27.40
2006,01,28,05,41,24.20
2006,01,28,05,42,19.30
2006,01,28,05,43,20.90
2006,01,28,05,44,17.70
2006,01,28,05,45,16.10
2006,01,28,05,46,22.50
2006,01,28,05,47,14.50
2006,01,28,05,48,8.10
2006,01,28,05,49,17.70
2006,01,28,05,50,19.30
2006,01,28,05,51,27.40
2006,01,28,05,52,25.70
2006,01,28,05,53,22.50
2006,01,28,05,54,25.70
2006,01,28,05,55,14.50
2006,01,28,05,56,0.00
2006,01,28,05,57,17.70
2006,01,28,05,58,14.50
2006,01,28,05,59,19.30
2006,01,28,06,00,9.60
2006,01,28,06,01,9.60
2006,01,28,06,02,20.90
2006,01,28,06,03,16.10
2006,01,28,06,04,22.50
2006,01,28,06,05,20.90
2006,01,28,06,06,16.10
2006,01,28,06,07,19.30
2006,01,28,06,08,16.10
2006,01,28,06,09,8.10
2006,01,28,06,10,20.90
2006,01,28,06,11,12.90
2006,01,28,06,12,24.20
2006,01,28,06,13,19.30
2006,01,28,06,14,19.30
2006,01,28,06,15,9.60
2006,01,28,06,16,24.20
2006,01,28,06,17,14.50
2006,01,28,06,18,19.30
2006,01,28,06,19,17.70
2006,01,28,06,20,16.10
2006,01,28,06,21,29.00
2006,01,28,06,22,17.70
2006,01,28,06,23,8.10
2006,01,28,06,24,19.30
2006,01,28,06,25,33.80
2006,01,28,06,26,29.00
2006,01,28,06,27,11.30
2006,01,28,06,28,25.70
2006,01,28,06,29,29.00
2006,01,28,06,30,30.60
2006,01,28,06,31,45.10
2006,01,28,06,32,29.00
2006,01,28,06,33,30.60
2006,01,28,06,34,20.90
2006,01,28,06,35,33.80
2006,01,28,06,36,30.60
2006,01,28,06,37,32.20
2006,01,28,06,38,20.90
2006,01,28,06,39,19.30
2006,01,28,06,40,22.50
2006,01,28,06,41,29.00
2006,01,28,06,42,27.40
2006,01,28,06,43,33.80
2006,01,28,06,44,25.70
2006,01,28,06,45,20.90
2006,01,28,06,46,22.50
2006,01,28,06,47,22.50
2006,01,28,06,48,19.30
2006,01,28,06,49,19.30
2006,01,28,06,50,30.60
2006,01,28,06,51,20.90
2006,01,28,06,52,4.80
2006,01,28,06,53,6.40
2006,01,28,06,54,11.30
2006,01,28,06,55,29.00
2006,01,28,06,56,25.70
2006,01,28,06,57,11.30
2006,01,28,06,58,24.20
2006,01,28,06,59,22.50
2006,01,28,07,00,11.30
2006,01,28,07,01,19.30
2006,01,28,07,02,22.50
2006,01,28,07,03,33.80
2006,01,28,07,04,33.80
2006,01,28,07,05,22.50
2006,01,28,07,06,19.30
2006,01,28,07,07,22.50
2006,01,28,07,08,25.70
2006,01,28,07,09,19.30
2006,01,28,07,10,25.70
2006,01,28,07,11,24.20
2006,01,28,07,12,24.20
2006,01,28,07,13,22.50
2006,01,28,07,14,20.90
2006,01,28,07,15,22.50
2006,01,28,07,16,35.40
2006,01,28,07,17,19.30
2006,01,28,07,18,11.30
2006,01,28,07,19,16.10
2006,01,28,07,20,30.60
2006,01,28,07,21,14.50
2006,01,28,07,22,17.70
2006,01,28,07,23,17.70
2006,01,28,07,24,22.50
2006,01,28,07,25,22.50
2006,01,28,07,26,27.40
2006,01,28,07,27,17.70
2006,01,28,07,28,14.50
2006,01,28,07,29,27.40
2006,01,28,07,30,17.70
2006,01,28,07,31,20.90
2006,01,28,07,32,20.90
2006,01,28,07,33,17.70
2006,01,28,07,34,11.30
2006,01,28,07,35,16.10
2006,01,28,07,36,20.90
2006,01,28,07,37,25.70
2006,01,28,07,38,24.20
2006,01,28,07,39,20.90
2006,01,28,07,40,17.70
2006,01,28,07,41,11.30
2006,01,28,07,42,32.20
2006,01,28,07,43,24.20
2006,01,28,07,44,27.40
2006,01,28,07,45,14.50
2006,01,28,07,46,32.20
2006,01,28,07,47,22.50
2006,01,28,07,48,32.20
2006,01,28,07,49,29.00
2006,01,28,07,50,19.30
2006,01,28,07,51,32.20
2006,01,28,07,52,22.50
2006,01,28,07,53,11.30
2006,01,28,07,54,25.70
2006,01,28,07,55,40.20
2006,01,28,07,56,29.00
2006,01,28,07,57,9.60
2006,01,28,07,58,29.00
2006,01,28,07,59,33.80
2006,01,28,08,00,22.50
2006,01,28,08,01,27.40
2006,01,28,08,02,29.00
2006,01,28,08,03,30.60
2006,01,28,08,04,38.60
2006,01,28,08,05,22.50
2006,01,28,08,06,25.70
2006,01,28,08,07,37.00
2006,01,28,08,08,22.50
2006,01,28,08,09,17.70
2006,01,28,08,10,35.40
2006,01,28,08,11,20.90
2006,01,28,08,12,29.00
2006,01,28,08,13,37.00
2006,01,28,08,14,22.50
2006,01,28,08,15,8.10
2006,01,28,08,16,20.90
2006,01,28,08,17,24.20
2006,01,28,08,18,11.30
2006,01,28,08,19,11.30
2006,01,28,08,20,12.90
2006,01,28,08,21,3.20
2006,01,28,08,22,8.10
2006,01,28,08,23,11.30
2006,01,28,08,24,9.60
2006,01,28,08,25,3.20
2006,01,28,08,26,8.10
2006,01,28,08,27,8.10
2006,01,28,08,28,12.90
2006,01,28,08,29,8.10
2006,01,28,08,30,11.30
2006,01,28,08,31,16.10
2006,01,28,08,32,20.90
2006,01,28,08,33,9.60
2006,01,28,08,34,14.50
2006,01,28,08,35,3.20
2006,01,28,08,36,3.20
2006,01,28,08,37,3.20
2006,01,28,08,38,8.10
2006,01,28,08,39,9.60
2006,01,28,08,40,4.80
2006,01,28,08,41,4.80
2006,01,28,08,42,3.20
2006,01,28,08,43,14.50
2006,01,28,08,44,9.60
2006,01,28,08,45,8.10
2006,01,28,08,46,6.40
2006,01,28,08,47,4.80
2006,01,28,08,48,0.00
2006,01,28,08,49,0.00
2006,01,28,08,50,3.20
2006,01,28,08,51,6.40
2006,01,28,08,52,4.80
2006,01,28,08,53,4.80
2006,01,28,08,54,17.70
2006,01,28,08,55,6.40
2006,01,28,08,56,1.60
2006,01,28,08,57,3.20
2006,01,28,08,58,3.20
2006,01,28,08,59,6.40
2006,01,28,09,00,4.80
2006,01,28,09,01,4.80
2006,01,28,09,02,6.40
2006,01,28,09,03,8.10
2006,01,28,09,04,9.60
2006,01,28,09,05,8.10
2006,01,28,09,06,11.30
2006,01,28,09,07,8.10
2006,01,28,09,08,8.10
2006,01,28,09,09,4.80
2006,01,28,09,10,8.10
2006,01,28,09,11,6.40
2006,01,28,09,12,8.10
2006,01,28,09,13,11.30
2006,01,28,09,14,8.10
2006,01,28,09,15,9.60
2006,01,28,09,16,11.30
2006,01,28,09,17,6.40
2006,01,28,09,18,6.40
2006,01,28,09,19,12.90
2006,01,28,09,20,9.60
2006,01,28,09,21,9.60
2006,01,28,09,22,17.70
2006,01,28,09,23,6.40
2006,01,28,09,24,1.60
2006,01,28,09,25,3.20
2006,01,28,09,26,1.60
2006,01,28,09,27,1.60
2006,01,28,09,28,8.10
2006,01,28,09,29,11.30
2006,01,28,09,30,4.80
2006,01,28,09,31,4.80
2006,01,28,09,32,4.80
2006,01,28,09,33,4.80
2006,01,28,09,34,6.40
2006,01,28,09,35,8.10
2006,01,28,09,36,3.20
2006,01,28,09,37,1.60
2006,01,28,09,38,3.20
2006,01,28,09,39,1.60
2006,01,28,09,40,12.90
2006,01,28,09,41,6.40
2006,01,28,09,42,4.80
2006,01,28,09,43,3.20
2006,01,28,09,44,6.40
2006,01,28,09,45,1.60
2006,01,28,09,46,1.60
2006,01,28,09,47,3.20
2006,01,28,09,48,3.20
2006,01,28,09,49,1.60
2006,01,28,09,50,0.00
2006,01,28,09,51,0.00
2006,01,28,09,52,3.20
2006,01,28,09,53,3.20
2006,01,28,09,54,1.60
2006,01,28,09,55,4.80
2006,01,28,09,56,4.80
2006,01,28,09,57,6.40
2006,01,28,09,58,4.80
2006,01,28,09,59,8.10
2006,01,28,10,00,8.10
2006,01,28,10,01,6.40
2006,01,28,10,02,9.60
2006,01,28,10,03,11.30
2006,01,28,10,04,14.50
2006,01,28,10,05,16.10
2006,01,28,10,06,14.50
2006,01,28,10,07,17.70
2006,01,28,10,08,22.50
2006,01,28,10,09,11.30
2006,01,28,10,10,19.30
2006,01,28,10,11,40.20
2006,01,28,10,12,17.70
2006,01,28,10,13,25.70
2006,01,28,10,14,27.40
2006,01,28,10,15,24.20
2006,01,28,10,16,29.00
2006,01,28,10,17,19.30
2006,01,28,10,18,22.50
2006,01,28,10,19,16.10
2006,01,28,10,20,12.90
2006,01,28,10,21,24.20
2006,01,28,10,22,9.60
2006,01,28,10,23,16.10
2006,01,28,10,24,11.30
2006,01,28,10,25,27.40
2006,01,28,10,26,20.90
2006,01,28,10,27,14.50
2006,01,28,10,28,11.30
2006,01,28,10,29,22.50
2006,01,28,10,30,20.90
2006,01,28,10,31,20.90
2006,01,28,10,32,11.30
2006,01,28,10,33,8.10
2006,01,28,10,34,16.10
2006,01,28,10,35,16.10
2006,01,28,10,36,9.60
2006,01,28,10,37,6.40
2006,01,28,10,38,4.80
2006,01,28,10,39,4.80
2006,01,28,10,40,6.40
2006,01,28,10,41,8.10
2006,01,28,10,42,8.10
2006,01,28,10,43,9.60
2006,01,28,10,44,9.60
2006,01,28,10,45,4.80
2006,01,28,10,46,4.80
2006,01,28,10,47,6.40
2006,01,28,10,48,6.40
2006,01,28,10,49,4.80
2006,01,28,10,50,9.60
2006,01,28,10,51,1.60
2006,01,28,10,52,3.20
2006,01,28,10,53,1.60
2006,01,28,10,54,4.80
2006,01,28,10,55,3.20
2006,01,28,10,56,6.40
2006,01,28,10,57,4.80
2006,01,28,10,58,4.80
2006,01,28,10,59,4.80
2006,01,28,11,00,6.40
2006,01,28,11,01,8.10
2006,01,28,11,02,4.80
2006,01,28,11,03,16.10
2006,01,28,11,04,14.50
2006,01,28,11,05,16.10
2006,01,28,11,06,6.40
2006,01,28,11,07,17.70
2006,01,28,11,08,16.10
2006,01,28,11,09,16.10
2006,01,28,11,10,24.20
2006,01,28,11,11,19.30
2006,01,28,11,12,11.30
2006,01,28,11,13,3.20
2006,01,28,11,14,17.70
2006,01,28,11,15,19.30
2006,01,28,11,16,9.60
2006,01,28,11,17,14.50
2006,01,28,11,18,4.80
2006,01,28,11,19,9.60
2006,01,28,11,20,16.10
2006,01,28,11,21,9.60
2006,01,28,11,22,8.10
2006,01,28,11,23,8.10
2006,01,28,11,24,8.10
2006,01,28,11,25,9.60
2006,01,28,11,26,8.10
2006,01,28,11,27,8.10
2006,01,28,11,28,9.60
2006,01,28,11,29,11.30
2006,01,28,11,30,4.80
2006,01,28,11,31,8.10
2006,01,28,11,32,8.10
2006,01,28,11,33,6.40
2006,01,28,11,34,14.50
2006,01,28,11,35,11.30
2006,01,28,11,36,6.40
2006,01,28,11,37,12.90
2006,01,28,11,38,14.50
2006,01,28,11,39,14.50
2006,01,28,11,40,9.60
2006,01,28,11,41,11.30
2006,01,28,11,42,9.60
2006,01,28,11,43,4.80
2006,01,28,11,44,6.40
2006,01,28,11,45,8.10
2006,01,28,11,46,8.10
2006,01,28,11,47,9.60
2006,01,28,11,48,8.10
2006,01,28,11,49,16.10
2006,01,28,11,50,6.40
2006,01,28,11,51,11.30
2006,01,28,11,52,19.30
2006,01,28,11,53,14.50
2006,01,28,11,54,9.60
2006,01,28,11,55,6.40
2006,01,28,11,56,9.60
2006,01,28,11,57,6.40
2006,01,28,11,58,6.40
2006,01,28,11,59,8.10
2006,01,28,12,00,14.50
2006,01,28,12,01,6.40
2006,01,28,12,02,9.60
2006,01,28,12,03,14.50
2006,01,28,12,04,9.60
2006,01,28,12,05,9.60
2006,01,28,12,06,11.30
2006,01,28,12,07,6.40
2006,01,28,12,08,12.90
2006,01,28,12,09,11.30
2006,01,28,12,10,11.30
2006,01,28,12,11,6.40
2006,01,28,12,12,6.40
2006,01,28,12,13,9.60
2006,01,28,12,14,8.10
2006,01,28,12,15,6.40
2006,01,28,12,16,9.60
2006,01,28,12,17,6.40
2006,01,28,12,18,6.40
2006,01,28,12,19,11.30
2006,01,28,12,20,9.60
2006,01,28,12,21,11.30
2006,01,28,12,22,17.70
2006,01,28,12,23,19.30
2006,01,28,12,24,19.30
2006,01,28,12,25,20.90
2006,01,28,12,26,16.10
2006,01,28,12,27,27.40
2006,01,28,12,28,27.40
2006,01,28,12,29,14.50
2006,01,28,12,30,16.10
2006,01,28,12,31,22.50
2006,01,28,12,32,22.50
2006,01,28,12,33,20.90
2006,01,28,12,34,16.10
2006,01,28,12,35,22.50
2006,01,28,12,36,17.70
2006,01,28,12,37,12.90
2006,01,28,12,38,14.50
2006,01,28,12,39,8.10
2006,01,28,12,40,8.10
2006,01,28,12,41,14.50
2006,01,28,12,42,11.30
2006,01,28,12,43,8.10
2006,01,28,12,44,19.30
2006,01,28,12,45,14.50
2006,01,28,12,46,9.60
2006,01,28,12,47,9.60
2006,01,28,12,48,4.80
2006,01,28,12,49,3.20
2006,01,28,12,50,9.60
2006,01,28,12,51,9.60
2006,01,28,12,52,8.10
2006,01,28,12,53,17.70
2006,01,28,12,54,14.50
2006,01,28,12,55,16.10
2006,01,28,12,56,14.50
2006,01,28,12,57,8.10
2006,01,28,12,58,8.10
2006,01,28,12,59,9.60
2006,01,28,13,00,4.80
2006,01,28,13,01,9.60
2006,01,28,13,02,14.50
2006,01,28,13,03,14.50
2006,01,28,13,04,6.40
2006,01,28,13,05,19.30
2006,01,28,13,06,19.30
2006,01,28,13,07,11.30
2006,01,28,13,08,9.60
2006,01,28,13,09,11.30
2006,01,28,13,10,16.10
2006,01,28,13,11,17.70
2006,01,28,13,12,27.40
2006,01,28,13,13,22.50
2006,01,28,13,14,16.10
2006,01,28,13,15,8.10
2006,01,28,13,16,11.30
2006,01,28,13,17,6.40
2006,01,28,13,18,20.90
2006,01,28,13,19,22.50
2006,01,28,13,20,16.10
2006,01,28,13,21,12.90
2006,01,28,13,22,14.50
2006,01,28,13,23,17.70
2006,01,28,13,24,22.50
2006,01,28,13,25,19.30
2006,01,28,13,26,19.30
2006,01,28,13,27,22.50
2006,01,28,13,28,19.30
2006,01,28,13,29,14.50
2006,01,28,13,30,16.10
2006,01,28,13,31,14.50
2006,01,28,13,32,30.60
2006,01,28,13,33,25.70
2006,01,28,13,34,19.30
2006,01,28,13,35,19.30
2006,01,28,13,36,14.50
2006,01,28,13,37,32.20
2006,01,28,13,38,25.70
2006,01,28,13,39,9.60
2006,01,28,13,40,9.60
2006,01,28,13,41,17.70
2006,01,28,13,42,29.00
2006,01,28,13,43,29.00
2006,01,28,13,44,25.70
2006,01,28,13,45,29.00
2006,01,28,13,46,25.70
2006,01,28,13,47,24.20
2006,01,28,13,48,22.50
2006,01,28,13,49,17.70
2006,01,28,13,50,14.50
2006,01,28,13,51,11.30
2006,01,28,13,52,16.10
2006,01,28,13,53,11.30
2006,01,28,13,54,17.70
2006,01,28,13,55,6.40
2006,01,28,13,56,11.30
2006,01,28,13,57,24.20
2006,01,28,13,58,14.50
2006,01,28,13,59,11.30
2006,01,28,14,00,19.30
2006,01,28,14,01,17.70
2006,01,28,14,02,9.60
2006,01,28,14,03,20.90
2006,01,28,14,04,17.70
2006,01,28,14,05,22.50
2006,01,28,14,06,30.60
2006,01,28,14,07,19.30
2006,01,28,14,08,6.40
2006,01,28,14,09,20.90
2006,01,28,14,10,19.30
2006,01,28,14,11,25.70
2006,01,28,14,12,25.70
2006,01,28,14,13,24.20
2006,01,28,14,14,24.20
2006,01,28,14,15,19.30
2006,01,28,14,16,14.50
2006,01,28,14,17,9.60
2006,01,28,14,18,11.30
2006,01,28,14,19,11.30
2006,01,28,14,20,11.30
2006,01,28,14,21,9.60
2006,01,28,14,22,14.50
2006,01,28,14,23,11.30
2006,01,28,14,24,19.30
2006,01,28,14,25,17.70
2006,01,28,14,26,11.30
2006,01,28,14,27,11.30
2006,01,28,14,28,24.20
2006,01,28,14,29,17.70
2006,01,28,14,30,6.40
2006,01,28,14,31,4.80
2006,01,28,14,32,3.20
2006,01,28,14,33,11.30
2006,01,28,14,34,11.30
2006,01,28,14,35,8.10
2006,01,28,14,36,11.30
2006,01,28,14,37,11.30
2006,01,28,14,38,9.60
2006,01,28,14,39,14.50
2006,01,28,14,40,17.70
2006,01,28,14,41,11.30
2006,01,28,14,42,19.30
2006,01,28,14,43,17.70
2006,01,28,14,44,14.50
2006,01,28,14,45,14.50
2006,01,28,14,46,14.50
2006,01,28,14,47,6.40
2006,01,28,14,48,14.50
2006,01,28,14,49,9.60
2006,01,28,14,50,4.80
2006,01,28,14,51,8.10
2006,01,28,14,52,9.60
2006,01,28,14,53,12.90
2006,01,28,14,54,11.30
2006,01,28,14,55,11.30
2006,01,28,14,56,6.40
2006,01,28,14,57,8.10
2006,01,28,14,58,16.10
2006,01,28,14,59,17.70
2006,01,28,15,00,16.10
2006,01,28,15,01,19.30
2006,01,28,15,02,11.30
2006,01,28,15,03,8.10
2006,01,28,15,04,9.60
2006,01,28,15,05,11.30
2006,01,28,15,06,8.10
2006,01,28,15,07,6.40
2006,01,28,15,08,9.60
2006,01,28,15,09,9.60
2006,01,28,15,10,11.30
2006,01,28,15,11,9.60
2006,01,28,15,12,11.30
2006,01,28,15,13,3.20
2006,01,28,15,14,4.80
2006,01,28,15,15,9.60
2006,01,28,15,16,8.10
2006,01,28,15,17,9.60
2006,01,28,15,18,9.60
2006,01,28,15,19,6.40
2006,01,28,15,20,8.10
2006,01,28,15,21,6.40
2006,01,28,15,22,9.60
2006,01,28,15,23,19.30
2006,01,28,15,24,14.50
2006,01,28,15,25,12.90
2006,01,28,15,26,6.40
2006,01,28,15,27,11.30
2006,01,28,15,28,11.30
2006,01,28,15,29,9.60
2006,01,28,15,30,14.50
2006,01,28,15,31,16.10
2006,01,28,15,32,8.10
2006,01,28,15,33,6.40
2006,01,28,15,34,11.30
2006,01,28,15,35,4.80
2006,01,28,15,36,11.30
2006,01,28,15,37,8.10
2006,01,28,15,38,16.10
2006,01,28,15,39,9.60
2006,01,28,15,40,6.40
2006,01,28,15,41,8.10
2006,01,28,15,42,9.60
2006,01,28,15,43,20.90
2006,01,28,15,44,12.90
2006,01,28,15,45,17.70
2006,01,28,15,46,8.10
2006,01,28,15,47,11.30
2006,01,28,15,48,17.70
2006,01,28,15,49,11.30
2006,01,28,15,50,9.60
2006,01,28,15,51,9.60
2006,01,28,15,52,14.50
2006,01,28,15,53,6.40
2006,01,28,15,54,3.20
2006,01,28,15,55,9.60
2006,01,28,15,56,16.10
2006,01,28,15,57,8.10
2006,01,28,15,58,11.30
2006,01,28,15,59,14.50
2006,01,28,16,00,19.30
2006,01,28,16,01,16.10
2006,01,28,16,02,17.70
2006,01,28,16,03,12.90
2006,01,28,16,04,6.40
2006,01,28,16,05,6.40
2006,01,28,16,06,12.90
2006,01,28,16,07,11.30
2006,01,28,16,08,8.10
2006,01,28,16,09,8.10
2006,01,28,16,10,9.60
2006,01,28,16,11,6.40
2006,01,28,16,12,6.40
2006,01,28,16,13,8.10
2006,01,28,16,14,6.40
2006,01,28,16,15,4.80
2006,01,28,16,16,6.40
2006,01,28,16,17,8.10
2006,01,28,16,18,3.20
2006,01,28,16,19,6.40
2006,01,28,16,20,8.10
2006,01,28,16,21,11.30
2006,01,28,16,22,8.10
2006,01,28,16,23,16.10
2006,01,28,16,24,6.40
2006,01,28,16,25,11.30
2006,01,28,16,26,12.90
2006,01,28,16,27,8.10
2006,01,28,16,28,12.90
2006,01,28,16,29,8.10
2006,01,28,16,30,4.80
2006,01,28,16,31,6.40
2006,01,28,16,32,14.50
2006,01,28,16,33,9.60
2006,01,28,16,34,3.20
2006,01,28,16,35,4.80
2006,01,28,16,36,17.70
2006,01,28,16,37,6.40
2006,01,28,16,38,11.30
2006,01,28,16,39,14.50
2006,01,28,16,40,8.10
2006,01,28,16,41,1.60
2006,01,28,16,42,17.70
2006,01,28,16,43,14.50
2006,01,28,16,44,8.10
2006,01,28,16,45,9.60
2006,01,28,16,46,14.50
2006,01,28,16,47,8.10
2006,01,28,16,48,6.40
2006,01,28,16,49,4.80
2006,01,28,16,50,4.80
2006,01,28,16,51,14.50
2006,01,28,16,52,8.10
2006,01,28,16,53,8.10
2006,01,28,16,54,19.30
2006,01,28,16,55,22.50
2006,01,28,16,56,8.10
2006,01,28,16,57,9.60
2006,01,28,16,58,22.50
2006,01,28,16,59,16.10
2006,01,28,17,00,22.50
2006,01,28,17,01,19.30
2006,01,28,17,02,11.30
2006,01,28,17,03,20.90
2006,01,28,17,04,14.50
2006,01,28,17,05,16.10
2006,01,28,17,06,11.30
2006,01,28,17,07,11.30
2006,01,28,17,08,16.10
2006,01,28,17,09,24.20
2006,01,28,17,10,11.30
2006,01,28,17,11,17.70
2006,01,28,17,12,14.50
2006,01,28,17,13,32.20
2006,01,28,17,14,22.50
2006,01,28,17,15,16.10
2006,01,28,17,16,19.30
2006,01,28,17,17,16.10
2006,01,28,17,18,30.60
2006,01,28,17,19,25.70
2006,01,28,17,20,17.70
2006,01,28,17,21,22.50
2006,01,28,17,22,25.70
2006,01,28,17,23,17.70
2006,01,28,17,24,17.70
2006,01,28,17,25,16.10
2006,01,28,17,26,22.50
2006,01,28,17,27,24.20
2006,01,28,17,28,12.90
2006,01,28,17,29,17.70
2006,01,28,17,30,19.30
2006,01,28,17,31,19.30
2006,01,28,17,32,16.10
2006,01,28,17,33,19.30
2006,01,28,17,34,16.10
2006,01,28,17,35,16.10
2006,01,28,17,36,19.30
2006,01,28,17,37,14.50
2006,01,28,17,38,17.70
2006,01,28,17,39,19.30
2006,01,28,17,40,14.50
2006,01,28,17,41,17.70
2006,01,28,17,42,14.50
2006,01,28,17,43,16.10
2006,01,28,17,44,11.30
2006,01,28,17,45,8.10
2006,01,28,17,46,19.30
2006,01,28,17,47,19.30
2006,01,28,17,48,4.80
2006,01,28,17,49,11.30
2006,01,28,17,50,9.60
2006,01,28,17,51,11.30
2006,01,28,17,52,14.50
2006,01,28,17,53,4.80
2006,01,28,17,54,6.40
2006,01,28,17,55,8.10
2006,01,28,17,56,8.10
2006,01,28,17,57,16.10
2006,01,28,17,58,17.70
2006,01,28,17,59,6.40
2006,01,28,18,00,4.80
2006,01,28,18,01,11.30
2006,01,28,18,02,17.70
2006,01,28,18,03,16.10
2006,01,28,18,04,4.80
2006,01,28,18,05,20.90
2006,01,28,18,06,14.50
2006,01,28,18,07,4.80
2006,01,28,18,08,12.90
2006,01,28,18,09,16.10
2006,01,28,18,10,9.60
2006,01,28,18,11,9.60
2006,01,28,18,12,8.10
2006,01,28,18,13,9.60
2006,01,28,18,14,9.60
2006,01,28,18,15,16.10
2006,01,28,18,16,9.60
2006,01,28,18,17,14.50
2006,01,28,18,18,16.10
2006,01,28,18,19,12.90
2006,01,28,18,20,9.60
2006,01,28,18,21,6.40
2006,01,28,18,22,6.40
2006,01,28,18,23,1.60
2006,01,28,18,24,20.90
2006,01,28,18,25,24.20
2006,01,28,18,26,11.30
2006,01,28,18,27,6.40
2006,01,28,18,28,8.10
2006,01,28,18,29,6.40
2006,01,28,18,30,6.40
2006,01,28,18,31,9.60
2006,01,28,18,32,8.10
2006,01,28,18,33,14.50
2006,01,28,18,34,3.20
2006,01,28,18,35,16.10
2006,01,28,18,36,19.30
2006,01,28,18,37,14.50
2006,01,28,18,38,6.40
2006,01,28,18,39,3.20
2006,01,28,18,40,11.30
2006,01,28,18,41,6.40
2006,01,28,18,42,9.60
2006,01,28,18,43,14.50
2006,01,28,18,44,16.10
2006,01,28,18,45,20.90
2006,01,28,18,46,8.10
2006,01,28,18,47,9.60
2006,01,28,18,48,9.60
2006,01,28,18,49,16.10
2006,01,28,18,50,8.10
2006,01,28,18,51,14.50
2006,01,28,18,52,9.60
2006,01,28,18,53,6.40
2006,01,28,18,54,37.00
2006,01,28,18,55,19.30
2006,01,28,18,56,29.00
2006,01,28,18,57,20.90
2006,01,28,18,58,19.30
2006,01,28,18,59,17.70
2006,01,28,19,00,17.70
2006,01,28,19,01,11.30
2006,01,28,19,02,16.10
2006,01,28,19,03,20.90
2006,01,28,19,04,19.30
2006,01,28,19,05,11.30
2006,01,28,19,06,11.30
2006,01,28,19,07,11.30
2006,01,28,19,08,11.30
2006,01,28,19,09,11.30
2006,01,28,19,10,9.60
2006,01,28,19,11,9.60
2006,01,28,19,12,11.30
2006,01,28,19,13,17.70
2006,01,28,19,14,16.10
2006,01,28,19,15,11.30
2006,01,28,19,16,11.30